SCP
0 0 0 0 0 0 0 0 0 0 0 0 0 0 0 0 0 0 0 0 0 0 0 0 0 0 0 0 0 0 0 0 0 0 0 0 0 0 0 0 0 0 0 0
0 0 0 0 0 0 0 0 0 0 0 0 0 0 0 0 0 0 0 0 0 0 0 0 0 0 0 0 0 0 0 0 0 0 0 0 0 0 0 0 0 0 0 0
0 0 0 0 0 0 0 0 0 0 0 0 0 0 0 0 0 0 0 0 0 0 0 0 0 0 0 0 0 0 0 0 0 0 0 0 0 0 0 0 0 0 0 0
0 0 0 0 0 0 0 0 0 0 0 0 0 0 0 0 0 0 0 0 0 0 0 0 0 0 0 0 0 0 0 0 0 0 0 0 0 0 0 0 0 0 0 0
0 0 0 0 0 0 0 0 0 0 0 0 0 0 0 0 0 0 0 0 0 0 0 0 0 0 0 0 0 0 0 0 0 0 0 0 0 0 0 0 0 0 0 0
0 0 0 0 0 0 0 0 0 0 0 0 0 0 0 0 0 0 0 0 0 0 0 0 0 0 0 0 0 0 0 0 0 0 0 0 0 0 0 0 0 0 0 0
0 0 0 0 0 0 0 0 0 0 0 0 0 0 0 0 0 0 0 0 0 0 0 0 0 0 0 0 0 0 0 0 0 0 0 0 0 0 0 0 0 0 0 0
0 0 0 0 0 0 0 0 0 0 0 0 0 0 0 0 0 0 0 0 0 0 0 0 0 0 0 0 0 0 0 0 0 0 0 0 0 0 0 0 0 0 0 0
0 0 0 0 0 0 0 0 0 0 0 0 0 0 0 0 0 0 0 0 0 0 0 0 0 0 0 0 0 0 0 0 0 0 0 0 0 0 0 0 0 0 0 0
0 0 0 0 0 0 0 0 0 0 0 0 0 0 0 0 0 0 0 0 0 0 0 0 0 0 0 0 0 0 0 0 0 0 0 0 0 0 0 0 0 0 0 0
0 0 0 0 0 0 0 0 0 0 0 0 0 0 0 0 0 0 0 0 0 0 0 0 0 0 0 0 0 0 0 0 0 0 0 0 0 0 0 0 0 0 0 0
0 0 0 0 0 0 0 0 0 0 0 0 0 0 0 0 0 0 0 0 0 0 0 0 0 0 0 0 0 0 0 0 0 0 0 0 0 0 0 0 0 0 0 0
0 0 0 0 0 0 0 0 0 0 0 0 0 0 0 0 0 0 0 0 0 0 0 0 0 0 0 0 0 0 0 0 0 0 0 0 0 0 0 0 0 0 0 0
0 0 0 0 0 0 0 0 0 0 0 0 0 0 0 0 0 0 0 0 0 0 0 0 0 0 0 0 0 0 0 0 0 0 0 0 0 0 0 0 0 0 0 0
0 0 0 0 0 0 0 0 0 0 0 0 0 0 0 0 0 0 0 0 0 0 0 0 0 0 0 0 0 0 0 0 0 0 0 0 0 0 0 0 0 0 0 0
0 0 0 0 0 0 0 0 0 0 0 0 0 0 0 0 0 0 0 0 0 0 0 0 0 0 0 0 0 0 0 0 0 0 0 0 0 0 0 0 0 0 0 0
0 0 0 0 0 0 0 0 0 0 0 0 0 0 0 0 0 0 0 0 0 0 0 0 0 0 0 0 0 0 0 0 0 0 0 0 0 0 0 0 0 0 0 0
0 0 0 0 0 0 0 0 0 0 0 0 0 0 0 0 0 0 0 0 0 0 0 0 0 0 0 0 0 0 0 0 0 0 0 0 0 0 0 0 0 0 0 0
0 0 0 0 0 0 0 0 0 0 0 0 0 0 0 0 0 0 0 0 0 0 0 0 0 0 0 0 0 0 0 0 0 0 0 0 0 0 0 0 0 0 0 0
0 0 0 0 0 0 0 0 0 0 0 0 0 0 0 0 0 0 0 0 0 0 0 0 0 0 0 0 0 0 0 0 0 0 0 0 0 0 0 0 0 0 0 0
0 0 0 0 0 0 0 0 0 0 0 0 0 0 0 0 0 0 0 0 0 0 0 0 0 0 0 0 0 0 0 0 0 0 0 0 0 0 0 0 0 0 0 0
0 0 0 0 0 0 0 0 0 0 0 0 0 0 0 0 0 0 0 0 0 0 0 0 0 0 0 0 0 0 0 0 0 0 0 0 0 0 0 0 0 0 0 0
0 0 0 0 0 0 0 0 0 0 0 0 0 0 0 0 0 0 0 0 0 0 0 0 0 0 0 0 0 0 0 0 0 0 0 0 0 0 0 0 0 0 0 0
0 0 0 0 0 0 0 0 0 0 0 0 0 0 0 0 0 0 0 0 0 0 0 0 0 0 0 0 0 0 0 0 0 0 0 0 0 0 0 0 0 0 0 0
0 0 0 0 0 0 0 0 0 0 0 0 0 0 0 0 0 0 0 0 0 0 0 0 0 0 0 0 0 0 0 0 0 0 0 0 0 0 0 0 0 0 0 0
0 0 0 0 0 0 0 0 0 0 0 0 0 0 0 0 0 0 0 0 0 0 0 0 0 0 0 0 0 0 0 0 0 0 0 0 0 0 0 0 0 0 0 0
0 0 0 0 0 0 0 0 0 0 0 0 0 0 0 0 0 0 0 0 0 0 0 0 0 0 0 0 0 0 0 0 0 0 0 0 0 0 0 0 0 0 0 0
Wind_Speed
4 3 4 6 8 10 11 9 8 7 8 9 7 5 5 4 5 5 6 7 8 8 6 6 6 5 5 5 5 5 5 5 4 4 4 4 4 4 5 5 5 5 5 5
2 2 4 4 7 10 12 10 11 9 11 8 5 3 4 5 7 8 8 9 8 8 8 8 8 7 6 6 5 5 5 5 5 4 4 4 4 4 5 5 5 5 5 5
2 2 0 6 10 12 8 8 9 14 13 5 5 6 8 8 9 10 10 9 9 10 10 9 9 8 8 7 6 6 6 6 5 5 5 4 5 5 5 5 5 6 5 5
1 1 6 7 3 7 8 9 10 9 7 7 9 8 6 7 9 10 9 8 8 8 8 7 7 7 7 7 7 6 6 6 6 5 5 5 5 5 5 4 4 4 5 5
2 2 7 7 3 5 6 7 7 11 11 7 4 1 4 5 7 9 8 7 6 6 6 7 8 9 9 7 7 7 6 6 6 6 6 6 5 5 4 4 4 4 4 4
3 2 5 5 2 2 3 5 3 5 7 5 4 3 6 4 5 5 4 4 5 5 6 8 8 9 9 8 8 7 7 6 6 6 6 6 6 5 4 4 4 4 4 4
4 4 7 6 3 3 2 5 3 2 3 4 7 6 2 2 3 3 3 4 5 6 6 7 9 9 9 8 8 7 6 6 6 6 6 6 5 4 5 5 5 4 4 3
4 5 8 2 3 4 6 3 2 2 1 2 3 1 2 3 3 4 4 4 5 6 5 6 8 9 8 8 6 6 7 7 6 6 6 6 6 5 5 5 5 4 3 2
7 7 4 2 4 3 2 2 1 1 1 2 3 2 2 2 2 3 3 4 4 5 5 5 6 7 8 6 7 7 7 7 6 6 5 6 6 6 5 4 4 3 3 2
4 5 4 4 3 3 2 2 1 0 1 2 2 2 2 2 2 2 2 3 4 5 6 6 6 6 6 7 8 8 8 7 7 6 6 5 5 5 5 5 4 4 4 3
4 5 5 4 3 2 1 1 1 1 1 2 2 2 2 2 1 1 2 2 4 5 6 6 6 6 6 8 9 8 8 7 7 6 6 5 5 4 5 5 6 6 5 4
5 4 3 4 3 1 1 1 1 1 2 2 2 2 2 1 1 1 1 2 3 4 5 5 6 7 7 8 9 9 8 7 6 5 5 5 4 3 6 7 10 11 9 7
5 4 4 4 3 1 1 1 1 2 2 2 2 2 2 1 0 0 1 2 3 4 5 5 6 7 7 9 9 9 8 7 6 6 6 5 5 5 4 4 8 9 10 11
5 3 4 3 2 1 1 2 3 3 3 2 2 2 2 1 0 1 2 2 3 3 4 5 6 7 7 9 9 9 8 9 8 6 6 6 6 5 5 4 3 3 6 10
5 4 4 2 0 1 1 2 3 2 2 2 2 2 1 1 1 2 2 2 1 2 3 4 6 6 7 8 9 9 8 6 6 6 6 6 5 5 5 5 4 3 3 4
4 3 1 1 1 1 1 2 2 1 1 1 2 2 2 2 2 2 2 1 1 3 4 4 6 5 6 8 9 7 7 10 9 6 6 6 6 6 6 6 5 5 5 5
3 3 2 2 2 1 1 1 1 1 1 1 1 2 2 2 2 2 3 2 3 3 3 3 4 3 5 7 8 6 6 7 12 7 6 7 6 7 7 6 6 6 6 7
3 3 2 2 2 2 1 2 2 1 1 1 1 2 2 2 2 3 4 3 3 2 2 2 2 2 4 6 6 5 6 6 6 7 6 6 6 6 6 7 7 8 6 6
2 2 2 2 2 2 2 2 2 2 2 2 2 2 2 2 3 3 3 3 2 3 3 3 4 2 3 5 6 5 5 6 6 6 6 9 8 6 7 7 7 7 6 6
4 4 4 5 4 4 3 2 2 2 2 2 1 2 2 3 3 3 3 2 1 2 4 4 3 2 3 4 5 4 5 6 7 6 6 7 7 7 7 7 7 7 7 7
4 4 4 4 4 4 3 2 2 2 2 2 2 2 3 3 3 3 3 3 2 3 4 5 3 3 3 3 5 4 5 5 6 6 7 7 7 7 7 7 7 7 7 7
3 2 2 2 2 2 2 2 2 2 2 2 2 2 3 3 3 3 2 2 3 6 4 3 3 4 5 5 3 3 4 5 5 5 6 6 7 7 7 7 7 7 7 6
2 1 1 1 1 1 1 2 2 2 2 2 2 3 3 3 3 3 3 3 4 7 5 3 6 8 8 3 2 3 4 5 5 5 5 6 6 6 6 7 6 6 6 6
1 1 1 1 1 1 2 2 2 1 2 2 2 2 2 3 2 1 2 6 8 9 4 6 9 9 7 2 2 3 3 4 4 4 4 4 5 5 5 6 6 6 6 7
1 1 1 1 1 2 2 2 2 2 2 2 2 3 2 1 2 3 3 4 8 7 4 6 9 8 4 2 3 3 3 4 4 4 4 4 4 5 5 5 5 5 5 6
2 2 2 2 2 2 2 1 2 2 2 2 2 2 2 2 3 3 3 4 5 7 5 4 4 5 3 3 3 3 3 4 4 4 4 4 4 5 4 5 6 5 5 5
3 2 2 2 2 2 2 2 2 2 2 2 3 2 2 2 3 3 3 3 3 4 4 3 3 3 3 3 3 3 3 3 3 3 3 3 4 4 4 5 5 4 4 5
Wind_Direction
243 225 180 200 199 193 204 210 216 235 237 257 262 253 237 211 188 179 186 189 190 189 184 176 171 167 160 152 146 138 131 126 122 115 106 100 93 88 85 84 85 83 84 83
287 233 201 225 219 209 217 223 235 252 260 249 247 232 221 206 193 197 203 203 199 194 187 186 183 176 167 162 155 145 141 137 132 125 116 110 105 101 95 89 85 83 79 80
272 301 106 254 222 206 206 208 203 232 246 236 233 228 222 211 202 209 211 207 200 198 196 193 186 176 173 165 152 149 147 145 143 139 134 129 125 114 105 98 93 86 77 76
203 108 237 244 224 198 212 233 220 234 245 227 230 234 226 206 202 213 213 208 205 199 192 181 169 163 155 151 154 155 156 155 154 153 147 138 132 124 113 106 100 93 83 78
173 234 280 293 261 184 196 261 230 234 248 245 232 254 269 223 206 211 209 201 197 187 174 161 163 159 151 155 157 161 167 168 166 163 157 153 148 137 126 119 108 97 90 85
175 211 251 261 286 176 138 281 272 227 243 236 165 204 253 221 190 192 177 164 157 147 144 156 160 154 156 163 169 178 177 171 166 166 164 162 153 140 127 125 120 110 97 87
201 231 263 261 260 131 183 257 295 256 243 202 192 211 228 130 125 135 133 133 136 142 153 162 156 156 164 171 185 180 162 159 162 164 163 156 145 138 136 130 120 114 108 90
189 219 253 255 139 183 227 263 302 309 291 188 182 131 101 104 113 119 120 128 137 143 148 152 158 162 171 184 176 155 155 160 163 162 160 154 148 143 142 139 137 136 133 125
199 221 247 216 213 243 230 249 284 306 358 130 134 132 121 116 120 124 134 142 144 149 150 159 170 172 179 178 156 155 160 165 164 162 160 158 159 157 152 155 157 165 169 181
256 267 269 264 254 263 233 227 254 134 113 125 127 131 124 119 123 134 147 159 156 157 167 178 183 184 179 161 160 163 168 170 169 169 167 166 168 167 168 174 178 182 190 199
267 282 303 294 258 243 225 164 118 83 88 115 125 131 146 145 159 176 178 174 174 183 190 191 183 185 174 165 165 169 174 176 177 178 174 174 178 183 183 194 191 190 198 195
246 263 256 278 301 264 193 200 175 137 96 68 101 123 121 134 154 175 190 183 191 200 201 193 184 187 180 175 174 175 181 183 183 180 178 176 176 191 219 212 222 224 216 206
260 286 262 271 300 294 200 176 112 111 114 94 66 79 94 95 112 168 206 208 215 216 210 196 189 193 187 182 182 186 187 184 182 182 181 181 182 186 200 222 228 229 227 223
277 273 265 259 274 321 97 96 90 79 69 76 71 59 63 55 18 291 264 254 245 228 213 201 199 204 193 185 187 191 189 190 187 187 185 187 191 192 190 192 204 232 235 230
284 267 256 264 210 77 86 98 94 81 65 54 52 47 34 354 302 291 289 286 259 232 223 211 211 213 191 187 191 193 192 192 189 185 185 188 189 191 195 201 207 212 217 238
301 299 268 209 193 163 121 126 134 135 84 51 30 2 334 313 303 307 308 288 245 247 241 228 228 218 192 190 193 195 199 200 189 186 187 189 191 195 201 206 211 214 220 220
272 270 246 239 217 195 172 161 157 148 100 34 342 335 337 338 335 334 326 307 271 262 254 242 243 225 199 195 195 196 195 200 199 194 196 196 197 202 205 207 214 220 225 218
260 261 243 226 199 172 137 100 94 89 60 10 357 3 360 343 324 318 316 314 308 301 298 285 273 237 210 203 199 197 194 195 196 200 199 201 205 206 207 212 218 223 227 226
6 26 49 75 97 108 97 84 71 58 38 22 13 354 337 327 320 316 315 313 309 304 316 313 300 260 231 218 205 199 197 198 202 205 204 211 213 211 212 216 220 222 221 217
36 50 63 65 66 75 78 65 60 52 26 9 360 348 336 331 327 321 314 295 292 309 316 317 303 275 253 234 215 205 204 206 208 210 209 211 214 215 215 218 221 222 221 221
32 45 56 62 63 62 57 48 48 33 11 9 1 337 325 325 327 324 318 306 322 329 322 317 310 289 269 259 230 216 214 215 215 214 214 216 218 221 221 221 222 222 222 224
14 31 44 52 64 54 37 31 28 19 11 7 1 348 338 333 332 323 298 296 321 325 324 301 296 295 294 280 239 229 227 225 224 221 219 219 220 223 225 224 225 226 225 224
352 10 18 15 24 30 19 13 4 359 353 349 343 337 327 317 315 316 317 324 321 319 319 296 301 303 300 283 252 244 240 237 232 228 226 223 222 224 226 225 227 228 227 226
321 337 337 342 355 341 324 322 330 332 325 320 321 324 323 319 313 299 300 316 322 321 314 307 310 306 303 287 266 256 251 250 247 241 236 231 227 227 229 228 229 229 228 227
283 285 280 273 276 279 282 295 308 314 317 308 307 310 311 297 291 301 307 309 318 323 317 315 318 317 312 291 273 265 259 254 253 249 239 236 232 230 231 230 230 229 228 228
260 260 254 246 248 263 268 270 277 287 296 301 301 298 305 304 301 303 304 306 311 320 321 312 312 313 306 291 282 276 272 273 271 262 252 245 238 236 235 234 233 232 231 230
256 252 255 262 257 246 248 252 264 276 278 284 291 296 304 308 308 308 309 310 312 313 311 311 311 308 306 302 296 288 281 274 268 261 256 250 244 240 237 236 235 233 230 229